Torna al catalogo

STARLINK-31965

AttivoComunicazioniVLEO
NORAD 59888·PAYLOAD·🇺🇸 United States

Lanciato May 28, 2024 da Cape Canaveral Space Force Station

Loading…

Prossimi Passaggi (prossime 24 ore)

TLE

AggiornatoSource: CelesTrak SupGP

Epoca: Sep 14, 2026, 22:38 UTC

1 59888C 24100D   26257.94354167 -.00022966  00000+0 -83198-3 0  2571
2 59888  43.0012 136.7821 0001283 267.7439 272.2632 15.27584345    19

Traccia STARLINK-31965 in tempo reale con AllMySat

Download on the App Store